owner,sensor,date,latitude,longitude,vertical_datum,direction_of_sea_water_velocity,sea_water_speed,upward_sea_water_velocity,qcFlag 
ADCP,ioos:station:wmo:42373:1,2009-02-01T00:11:00Z,27.3540,-94.6250,79.0,134.0,31.5,-9999.0,'11111222,11111222,99999999' 
ADCP,ioos:station:wmo:42373:1,2009-02-01T00:31:00Z,27.3540,-94.6250,79.0,128.0,36.7,-9999.0,'11111222,11111222,99999999' 
ADCP,ioos:station:wmo:42373:1,2009-02-01T00:51:00Z,27.3540,-94.6250,79.0,126.0,37.5,-9999.0,'11111222,11111222,99999999' 
ADCP,ioos:station:wmo:42373:1,2009-02-01T01:11:00Z,27.3540,-94.6250,79.0,123.0,40.3,-9999.0,'11111222,11111222,99999999' 
ADCP,ioos:station:wmo:42373:1,2009-02-01T01:31:00Z,27.3540,-94.6250,79.0,123.0,40.6,-9999.0,'11111222,11111222,99999999' 
ADCP,ioos:station:wmo:42373:1,2009-02-01T01:51:00Z,27.3540,-94.6250,79.0,125.0,43.5,-9999.0,'11111222,11111222,99999999' 
ADCP,ioos:station:wmo:42373:1,2009-02-01T02:11:00Z,27.3540,-94.6250,79.0,130.0,44.2,-9999.0,'11111222,11111222,99999999' 
ADCP,ioos:station:wmo:42373:1,2009-02-01T02:31:00Z,27.3540,-94.6250,79.0,132.0,48.4,-9999.0,'11111222,11111222,99999999' 
ADCP,ioos:station:wmo:42373:1,2009-02-01T02:51:00Z,27.3540,-94.6250,79.0,131.0,48.0,-9999.0,'11111222,11111222,99999999' 
ADCP,ioos:station:wmo:42373:1,2009-02-01T03:11:00Z,27.3540,-94.6250,79.0,130.0,47.0,-9999.0,'11111222,11111222,99999999' 
ADCP,ioos:station:wmo:42373:1,2009-02-01T03:31:00Z,27.3540,-94.6250,79.0,128.0,47.5,-9999.0,'11111222,11111222,99999999' 
ADCP,ioos:station:wmo:42373:1,2009-02-01T03:51:00Z,27.3540,-94.6250,79.0,128.0,46.0,-9999.0,'11111222,11111222,99999999' 
ADCP,ioos:station:wmo:42373:1,2009-02-01T04:11:00Z,27.3540,-94.6250,79.0,126.0,45.5,-9999.0,'11111222,11111222,99999999' 
ADCP,ioos:station:wmo:42373:1,2009-02-01T04:31:00Z,27.3540,-94.6250,79.0,125.0,44.1,-9999.0,'11111222,11111222,99999999' 
ADCP,ioos:station:wmo:42373:1,2009-02-01T04:51:00Z,27.3540,-94.6250,79.0,124.0,43.1,-9999.0,'11111222,11111222,99999999' 
ADCP,ioos:station:wmo:42373:1,2009-02-01T05:11:00Z,27.3540,-94.6250,79.0,124.0,39.7,-9999.0,'11111222,11111222,99999999' 
ADCP,ioos:station:wmo:42373:1,2009-02-01T05:31:00Z,27.3540,-94.6250,79.0,121.0,39.8,-9999.0,'11111222,11111222,99999999' 
ADCP,ioos:station:wmo:42373:1,2009-02-01T05:51:00Z,27.3540,-94.6250,79.0,119.0,40.9,-9999.0,'11111222,11111222,99999999' 
ADCP,ioos:station:wmo:42373:1,2009-02-01T06:11:00Z,27.3540,-94.6250,79.0,120.0,40.1,-9999.0,'11111222,11111222,99999999' 
ADCP,ioos:station:wmo:42373:1,2009-02-01T06:31:00Z,27.3540,-94.6250,79.0,119.0,41.3,-9999.0,'11111222,11111222,99999999' 
ADCP,ioos:station:wmo:42373:1,2009-02-01T06:51:00Z,27.3540,-94.6250,79.0,120.0,40.3,-9999.0,'11111222,11111222,99999999' 
ADCP,ioos:station:wmo:42373:1,2009-02-01T07:11:00Z,27.3540,-94.6250,79.0,119.0,40.3,-9999.0,'11111222,11111222,99999999' 
ADCP,ioos:station:wmo:42373:1,2009-02-01T07:31:00Z,27.3540,-94.6250,79.0,119.0,39.5,-9999.0,'11111222,11111222,99999999' 
ADCP,ioos:station:wmo:42373:1,2009-02-01T07:51:00Z,27.3540,-94.6250,79.0,117.0,39.9,-9999.0,'11111222,11111222,99999999' 
ADCP,ioos:station:wmo:42373:1,2009-02-01T08:11:00Z,27.3540,-94.6250,79.0,117.0,39.9,-9999.0,'11111222,11111222,99999999' 
ADCP,ioos:station:wmo:42373:1,2009-02-01T08:31:00Z,27.3540,-94.6250,79.0,117.0,41.5,-9999.0,'11111222,11111222,99999999' 
ADCP,ioos:station:wmo:42373:1,2009-02-01T08:51:00Z,27.3540,-94.6250,79.0,117.0,39.4,-9999.0,'11111222,11111222,99999999' 
ADCP,ioos:station:wmo:42373:1,2009-02-01T09:11:00Z,27.3540,-94.6250,79.0,116.0,39.7,-9999.0,'11111222,11111222,99999999' 
ADCP,ioos:station:wmo:42373:1,2009-02-01T09:31:00Z,27.3540,-94.6250,79.0,115.0,40.4,-9999.0,'11111222,11111222,99999999' 
ADCP,ioos:station:wmo:42373:1,2009-02-01T09:51:00Z,27.3540,-94.6250,79.0,114.0,42.2,-9999.0,'11111222,11111222,99999999' 
ADCP,ioos:station:wmo:42373:1,2009-02-01T10:11:00Z,27.3540,-94.6250,79.0,115.0,40.9,-9999.0,'11111222,11111222,99999999' 
ADCP,ioos:station:wmo:42373:1,2009-02-01T10:31:00Z,27.3540,-94.6250,79.0,114.0,41.7,-9999.0,'11111222,11111222,99999999' 
ADCP,ioos:station:wmo:42373:1,2009-02-01T10:51:00Z,27.3540,-94.6250,79.0,112.0,42.3,-9999.0,'11111222,11111222,99999999' 
ADCP,ioos:station:wmo:42373:1,2009-02-01T11:11:00Z,27.3540,-94.6250,79.0,113.0,40.9,-9999.0,'11111222,11111222,99999999' 
ADCP,ioos:station:wmo:42373:1,2009-02-01T11:31:00Z,27.3540,-94.6250,79.0,112.0,40.8,-9999.0,'11111222,11111222,99999999' 
ADCP,ioos:station:wmo:42373:1,2009-02-01T11:51:00Z,27.3540,-94.6250,79.0,111.0,41.0,-9999.0,'11111222,11111222,99999999' 
ADCP,ioos:station:wmo:42373:1,2009-02-01T12:11:00Z,27.3540,-94.6250,79.0,110.0,41.8,-9999.0,'11111222,11111222,99999999' 
ADCP,ioos:station:wmo:42373:1,2009-02-01T12:31:00Z,27.3540,-94.6250,79.0,108.0,40.7,-9999.0,'11111222,11111222,99999999' 
ADCP,ioos:station:wmo:42373:1,2009-02-01T12:51:00Z,27.3540,-94.6250,79.0,108.0,41.0,-9999.0,'11111222,11111222,99999999' 
ADCP,ioos:station:wmo:42373:1,2009-02-01T13:11:00Z,27.3540,-94.6250,79.0,107.0,42.9,-9999.0,'11111222,11111222,99999999' 
ADCP,ioos:station:wmo:42373:1,2009-02-01T13:31:00Z,27.3540,-94.6250,79.0,108.0,45.0,-9999.0,'11111222,11111222,99999999' 
ADCP,ioos:station:wmo:42373:1,2009-02-01T13:51:00Z,27.3540,-94.6250,79.0,106.0,45.6,-9999.0,'11111222,11111222,99999999' 
ADCP,ioos:station:wmo:42373:1,2009-02-01T14:11:00Z,27.3540,-94.6250,79.0,106.0,46.5,-9999.0,'11111222,11111222,99999999' 
ADCP,ioos:station:wmo:42373:1,2009-02-01T14:31:00Z,27.3540,-94.6250,79.0,106.0,46.6,-9999.0,'11111222,11111222,99999999' 
ADCP,ioos:station:wmo:42373:1,2009-02-01T14:51:00Z,27.3540,-94.6250,79.0,106.0,46.3,-9999.0,'11111222,11111222,99999999' 
ADCP,ioos:station:wmo:42373:1,2009-02-01T15:11:00Z,27.3540,-94.6250,79.0,106.0,48.0,-9999.0,'11111222,11111222,99999999' 
ADCP,ioos:station:wmo:42373:1,2009-02-01T15:31:00Z,27.3540,-94.6250,79.0,106.0,47.9,-9999.0,'11111222,11111222,99999999' 
ADCP,ioos:station:wmo:42373:1,2009-02-01T15:51:00Z,27.3540,-94.6250,79.0,106.0,49.4,-9999.0,'11111222,11111222,99999999' 
ADCP,ioos:station:wmo:42373:1,2009-02-01T16:11:00Z,27.3540,-94.6250,79.0,107.0,50.4,-9999.0,'11111222,11111222,99999999' 
ADCP,ioos:station:wmo:42373:1,2009-02-01T16:31:00Z,27.3540,-94.6250,79.0,106.0,50.8,-9999.0,'11111222,11111222,99999999' 
ADCP,ioos:station:wmo:42373:1,2009-02-01T16:51:00Z,27.3540,-94.6250,79.0,106.0,50.8,-9999.0,'11111222,11111222,99999999' 
ADCP,ioos:station:wmo:42373:1,2009-02-01T17:11:00Z,27.3540,-94.6250,79.0,107.0,51.3,-9999.0,'11111222,11111222,99999999' 
ADCP,ioos:station:wmo:42373:1,2009-02-01T17:31:00Z,27.3540,-94.6250,79.0,106.0,50.7,-9999.0,'11111222,11111222,99999999' 
ADCP,ioos:station:wmo:42373:1,2009-02-01T17:51:00Z,27.3540,-94.6250,79.0,106.0,50.8,-9999.0,'11111222,11111222,99999999' 
ADCP,ioos:station:wmo:42373:1,2009-02-01T18:11:00Z,27.3540,-94.6250,79.0,106.0,50.6,-9999.0,'11111222,11111222,99999999' 
ADCP,ioos:station:wmo:42373:1,2009-02-01T18:31:00Z,27.3540,-94.6250,79.0,105.0,51.3,-9999.0,'11111222,11111222,99999999' 
ADCP,ioos:station:wmo:42373:1,2009-02-01T18:51:00Z,27.3540,-94.6250,79.0,107.0,51.8,-9999.0,'11111222,11111222,99999999' 
ADCP,ioos:station:wmo:42373:1,2009-02-01T19:11:00Z,27.3540,-94.6250,79.0,107.0,52.4,-9999.0,'11111222,11111222,99999999' 
ADCP,ioos:station:wmo:42373:1,2009-02-01T19:31:00Z,27.3540,-94.6250,79.0,108.0,51.9,-9999.0,'11111222,11111222,99999999' 
ADCP,ioos:station:wmo:42373:1,2009-02-01T19:51:00Z,27.3540,-94.6250,79.0,108.0,52.1,-9999.0,'11111222,11111222,99999999' 
ADCP,ioos:station:wmo:42373:1,2009-02-01T20:11:00Z,27.3540,-94.6250,79.0,109.0,52.2,-9999.0,'11111222,11111222,99999999' 
ADCP,ioos:station:wmo:42373:1,2009-02-01T20:31:00Z,27.3540,-94.6250,79.0,109.0,51.9,-9999.0,'11111222,11111222,99999999' 
ADCP,ioos:station:wmo:42373:1,2009-02-01T20:51:00Z,27.3540,-94.6250,79.0,110.0,52.3,-9999.0,'11111222,11111222,99999999' 
ADCP,ioos:station:wmo:42373:1,2009-02-01T21:11:00Z,27.3540,-94.6250,79.0,110.0,51.9,-9999.0,'11111222,11111222,99999999' 
ADCP,ioos:station:wmo:42373:1,2009-02-01T21:31:00Z,27.3540,-94.6250,79.0,112.0,49.9,-9999.0,'11111222,11111222,99999999' 
ADCP,ioos:station:wmo:42373:1,2009-02-01T21:51:00Z,27.3540,-94.6250,79.0,111.0,50.6,-9999.0,'11111222,11111222,99999999' 
ADCP,ioos:station:wmo:42373:1,2009-02-01T22:11:00Z,27.3540,-94.6250,79.0,111.0,51.4,-9999.0,'11111222,11111222,99999999' 
ADCP,ioos:station:wmo:42373:1,2009-02-01T22:51:00Z,27.3540,-94.6250,79.0,111.0,51.0,-9999.0,'11111222,11111222,99999999' 
ADCP,ioos:station:wmo:42373:1,2009-02-01T23:11:00Z,27.3540,-94.6250,79.0,112.0,50.5,-9999.0,'11111222,11111222,99999999' 
ADCP,ioos:station:wmo:42373:1,2009-02-01T23:31:00Z,27.3540,-94.6250,79.0,112.0,50.0,-9999.0,'11111222,11111222,99999999' 
ADCP,ioos:station:wmo:42373:1,2009-02-01T23:51:00Z,27.3540,-94.6250,79.0,113.0,49.5,-9999.0,'11111222,11111222,99999999' 
ADCP,ioos:station:wmo:42373:1,2009-02-02T00:11:00Z,27.3540,-94.6250,79.0,113.0,49.2,-9999.0,'11111222,11111222,99999999' 
ADCP,ioos:station:wmo:42373:1,2009-02-02T00:31:00Z,27.3540,-94.6250,79.0,113.0,48.2,-9999.0,'11111222,11111222,99999999' 
ADCP,ioos:station:wmo:42373:1,2009-02-02T00:51:00Z,27.3540,-94.6250,79.0,115.0,46.9,-9999.0,'11111222,11111222,99999999' 
ADCP,ioos:station:wmo:42373:1,2009-02-02T01:11:00Z,27.3540,-94.6250,79.0,115.0,48.3,-9999.0,'11111222,11111222,99999999' 
ADCP,ioos:station:wmo:42373:1,2009-02-02T01:31:00Z,27.3540,-94.6250,79.0,115.0,47.8,-9999.0,'11111222,11111222,99999999' 
ADCP,ioos:station:wmo:42373:1,2009-02-02T01:51:00Z,27.3540,-94.6250,79.0,114.0,47.0,-9999.0,'11111222,11111222,99999999' 
ADCP,ioos:station:wmo:42373:1,2009-02-02T02:11:00Z,27.3540,-94.6250,79.0,115.0,45.9,-9999.0,'11111222,11111222,99999999' 
ADCP,ioos:station:wmo:42373:1,2009-02-02T02:31:00Z,27.3540,-94.6250,79.0,114.0,46.6,-9999.0,'11111222,11111222,99999999' 
ADCP,ioos:station:wmo:42373:1,2009-02-02T02:51:00Z,27.3540,-94.6250,79.0,115.0,47.4,-9999.0,'11111222,11111222,99999999' 
ADCP,ioos:station:wmo:42373:1,2009-02-02T03:11:00Z,27.3540,-94.6250,79.0,116.0,46.0,-9999.0,'11111222,11111222,99999999' 
ADCP,ioos:station:wmo:42373:1,2009-02-02T03:31:00Z,27.3540,-94.6250,79.0,116.0,43.6,-9999.0,'11111222,11111222,99999999' 
ADCP,ioos:station:wmo:42373:1,2009-02-02T03:51:00Z,27.3540,-94.6250,79.0,117.0,41.7,-9999.0,'11111222,11111222,99999999' 
ADCP,ioos:station:wmo:42373:1,2009-02-02T04:11:00Z,27.3540,-94.6250,79.0,116.0,41.3,-9999.0,'11111222,11111222,99999999' 
ADCP,ioos:station:wmo:42373:1,2009-02-02T04:31:00Z,27.3540,-94.6250,79.0,114.0,47.0,-9999.0,'11111222,11111222,99999999' 
ADCP,ioos:station:wmo:42373:1,2009-02-02T04:51:00Z,27.3540,-94.6250,79.0,116.0,42.9,-9999.0,'11111222,11111222,99999999' 
ADCP,ioos:station:wmo:42373:1,2009-02-02T05:11:00Z,27.3540,-94.6250,79.0,117.0,42.4,-9999.0,'11111222,11111222,99999999' 
ADCP,ioos:station:wmo:42373:1,2009-02-02T05:31:00Z,27.3540,-94.6250,79.0,117.0,41.1,-9999.0,'11111222,11111222,99999999' 
ADCP,ioos:station:wmo:42373:1,2009-02-02T05:51:00Z,27.3540,-94.6250,79.0,117.0,40.5,-9999.0,'11111222,11111222,99999999' 
ADCP,ioos:station:wmo:42373:1,2009-02-02T06:11:00Z,27.3540,-94.6250,79.0,116.0,41.4,-9999.0,'11111222,11111222,99999999' 
ADCP,ioos:station:wmo:42373:1,2009-02-02T06:31:00Z,27.3540,-94.6250,79.0,116.0,40.1,-9999.0,'11111222,11111222,99999999' 
ADCP,ioos:station:wmo:42373:1,2009-02-02T06:51:00Z,27.3540,-94.6250,79.0,114.0,41.8,-9999.0,'11111222,11111222,99999999' 
ADCP,ioos:station:wmo:42373:1,2009-02-02T07:11:00Z,27.3540,-94.6250,79.0,115.0,38.2,-9999.0,'11111222,11111222,99999999' 
ADCP,ioos:station:wmo:42373:1,2009-02-02T07:31:00Z,27.3540,-94.6250,79.0,115.0,40.6,-9999.0,'11111222,11111222,99999999' 
ADCP,ioos:station:wmo:42373:1,2009-02-02T07:51:00Z,27.3540,-94.6250,79.0,116.0,37.9,-9999.0,'11111222,11111222,99999999' 
ADCP,ioos:station:wmo:42373:1,2009-02-02T08:11:00Z,27.3540,-94.6250,79.0,114.0,40.6,-9999.0,'11111222,11111222,99999999' 
ADCP,ioos:station:wmo:42373:1,2009-02-02T08:31:00Z,27.3540,-94.6250,79.0,114.0,40.5,-9999.0,'11111222,11111222,99999999' 
ADCP,ioos:station:wmo:42373:1,2009-02-02T08:51:00Z,27.3540,-94.6250,79.0,114.0,43.6,-9999.0,'11111222,11111222,99999999' 
ADCP,ioos:station:wmo:42373:1,2009-02-02T09:11:00Z,27.3540,-94.6250,79.0,113.0,40.9,-9999.0,'11111222,11111222,99999999' 
ADCP,ioos:station:wmo:42373:1,2009-02-02T09:31:00Z,27.3540,-94.6250,79.0,111.0,41.8,-9999.0,'11111222,11111222,99999999' 
ADCP,ioos:station:wmo:42373:1,2009-02-02T09:51:00Z,27.3540,-94.6250,79.0,111.0,42.8,-9999.0,'11111222,11111222,99999999' 
ADCP,ioos:station:wmo:42373:1,2009-02-02T10:11:00Z,27.3540,-94.6250,79.0,111.0,41.3,-9999.0,'11111222,11111222,99999999' 
ADCP,ioos:station:wmo:42373:1,2009-02-02T10:31:00Z,27.3540,-94.6250,79.0,110.0,40.0,-9999.0,'11111222,11111222,99999999' 
ADCP,ioos:station:wmo:42373:1,2009-02-02T10:51:00Z,27.3540,-94.6250,79.0,109.0,41.0,-9999.0,'11111222,11111222,99999999' 
ADCP,ioos:station:wmo:42373:1,2009-02-02T11:11:00Z,27.3540,-94.6250,79.0,108.0,42.6,-9999.0,'11111222,11111222,99999999' 
ADCP,ioos:station:wmo:42373:1,2009-02-02T11:31:00Z,27.3540,-94.6250,79.0,107.0,43.4,-9999.0,'11111222,11111222,99999999' 
ADCP,ioos:station:wmo:42373:1,2009-02-02T11:51:00Z,27.3540,-94.6250,79.0,107.0,42.8,-9999.0,'11111222,11111222,99999999' 
ADCP,ioos:station:wmo:42373:1,2009-02-02T12:11:00Z,27.3540,-94.6250,79.0,106.0,42.2,-9999.0,'11111222,11111222,99999999' 
ADCP,ioos:station:wmo:42373:1,2009-02-02T12:31:00Z,27.3540,-94.6250,79.0,106.0,44.1,-9999.0,'11111222,11111222,99999999' 
ADCP,ioos:station:wmo:42373:1,2009-02-02T12:51:00Z,27.3540,-94.6250,79.0,106.0,44.5,-9999.0,'11111222,11111222,99999999' 
ADCP,ioos:station:wmo:42373:1,2009-02-02T13:11:00Z,27.3540,-94.6250,79.0,105.0,44.5,-9999.0,'11111222,11111222,99999999' 
ADCP,ioos:station:wmo:42373:1,2009-02-02T13:31:00Z,27.3540,-94.6250,79.0,105.0,47.3,-9999.0,'11111222,11111222,99999999' 
ADCP,ioos:station:wmo:42373:1,2009-02-02T13:51:00Z,27.3540,-94.6250,79.0,104.0,47.2,-9999.0,'11111222,11111222,99999999' 
ADCP,ioos:station:wmo:42373:1,2009-02-02T14:11:00Z,27.3540,-94.6250,79.0,102.0,45.1,-9999.0,'11111222,11111222,99999999' 
ADCP,ioos:station:wmo:42373:1,2009-02-02T14:31:00Z,27.3540,-94.6250,79.0,102.0,43.1,-9999.0,'11111222,11111222,99999999' 
ADCP,ioos:station:wmo:42373:1,2009-02-02T14:51:00Z,27.3540,-94.6250,79.0,102.0,46.1,-9999.0,'11111222,11111222,99999999' 
ADCP,ioos:station:wmo:42373:1,2009-02-02T15:11:00Z,27.3540,-94.6250,79.0,103.0,46.6,-9999.0,'11111222,11111222,99999999' 
ADCP,ioos:station:wmo:42373:1,2009-02-02T15:31:00Z,27.3540,-94.6250,79.0,103.0,49.2,-9999.0,'11111222,11111222,99999999' 
ADCP,ioos:station:wmo:42373:1,2009-02-02T15:51:00Z,27.3540,-94.6250,79.0,104.0,51.7,-9999.0,'11111222,11111222,99999999' 
ADCP,ioos:station:wmo:42373:1,2009-02-02T16:11:00Z,27.3540,-94.6250,79.0,105.0,53.6,-9999.0,'11111222,11111222,99999999' 
ADCP,ioos:station:wmo:42373:1,2009-02-02T16:31:00Z,27.3540,-94.6250,79.0,105.0,52.8,-9999.0,'11111222,11111222,99999999' 
ADCP,ioos:station:wmo:42373:1,2009-02-02T16:51:00Z,27.3540,-94.6250,79.0,106.0,53.0,-9999.0,'11111222,11111222,99999999' 
ADCP,ioos:station:wmo:42373:1,2009-02-02T17:11:00Z,27.3540,-94.6250,79.0,106.0,53.7,-9999.0,'11111222,11111222,99999999' 
ADCP,ioos:station:wmo:42373:1,2009-02-02T17:31:00Z,27.3540,-94.6250,79.0,106.0,53.5,-9999.0,'11111222,11111222,99999999' 
ADCP,ioos:station:wmo:42373:1,2009-02-02T17:51:00Z,27.3540,-94.6250,79.0,105.0,53.6,-9999.0,'11111222,11111222,99999999' 
ADCP,ioos:station:wmo:42373:1,2009-02-02T18:11:00Z,27.3540,-94.6250,79.0,104.0,53.3,-9999.0,'11111222,11111222,99999999' 
ADCP,ioos:station:wmo:42373:1,2009-02-02T18:31:00Z,27.3540,-94.6250,79.0,105.0,54.2,-9999.0,'11111222,11111222,99999999' 
ADCP,ioos:station:wmo:42373:1,2009-02-02T18:51:00Z,27.3540,-94.6250,79.0,104.0,54.0,-9999.0,'11111222,11111222,99999999' 
ADCP,ioos:station:wmo:42373:1,2009-02-02T19:11:00Z,27.3540,-94.6250,79.0,104.0,52.9,-9999.0,'11111222,11111222,99999999' 
ADCP,ioos:station:wmo:42373:1,2009-02-02T19:31:00Z,27.3540,-94.6250,79.0,104.0,53.2,-9999.0,'11111222,11111222,99999999' 
ADCP,ioos:station:wmo:42373:1,2009-02-02T19:51:00Z,27.3540,-94.6250,79.0,105.0,52.0,-9999.0,'11111222,11111222,99999999' 
ADCP,ioos:station:wmo:42373:1,2009-02-02T20:11:00Z,27.3540,-94.6250,79.0,104.0,52.3,-9999.0,'11111222,11111222,99999999' 
ADCP,ioos:station:wmo:42373:1,2009-02-02T20:31:00Z,27.3540,-94.6250,79.0,106.0,51.0,-9999.0,'11111222,11111222,99999999' 
ADCP,ioos:station:wmo:42373:1,2009-02-02T20:51:00Z,27.3540,-94.6250,79.0,106.0,48.4,-9999.0,'11111222,11111222,99999999' 
ADCP,ioos:station:wmo:42373:1,2009-02-02T21:11:00Z,27.3540,-94.6250,79.0,105.0,49.2,-9999.0,'11111222,11111222,99999999' 
ADCP,ioos:station:wmo:42373:1,2009-02-02T21:31:00Z,27.3540,-94.6250,79.0,106.0,45.6,-9999.0,'11111222,11111222,99999999' 
ADCP,ioos:station:wmo:42373:1,2009-02-02T21:51:00Z,27.3540,-94.6250,79.0,107.0,47.8,-9999.0,'11111222,11111222,99999999' 
ADCP,ioos:station:wmo:42373:1,2009-02-02T22:11:00Z,27.3540,-94.6250,79.0,109.0,45.7,-9999.0,'11111222,11111222,99999999' 
ADCP,ioos:station:wmo:42373:1,2009-02-02T22:31:00Z,27.3540,-94.6250,79.0,109.0,43.0,-9999.0,'11111222,11111222,99999999' 
ADCP,ioos:station:wmo:42373:1,2009-02-02T22:51:00Z,27.3540,-94.6250,79.0,110.0,41.2,-9999.0,'11111222,11111222,99999999' 
ADCP,ioos:station:wmo:42373:1,2009-02-02T23:11:00Z,27.3540,-94.6250,79.0,110.0,42.4,-9999.0,'11111222,11111222,99999999' 
ADCP,ioos:station:wmo:42373:1,2009-02-02T23:31:00Z,27.3540,-94.6250,79.0,111.0,41.4,-9999.0,'11111222,11111222,99999999' 
ADCP,ioos:station:wmo:42373:1,2009-02-02T23:51:00Z,27.3540,-94.6250,79.0,111.0,44.0,-9999.0,'11111222,11111222,99999999' 
ADCP,ioos:station:wmo:42373:1,2009-02-03T00:11:00Z,27.3540,-94.6250,79.0,112.0,41.8,-9999.0,'11111222,11111222,99999999' 
ADCP,ioos:station:wmo:42373:1,2009-02-03T00:31:00Z,27.3540,-94.6250,79.0,114.0,40.5,-9999.0,'11111222,11111222,99999999' 
ADCP,ioos:station:wmo:42373:1,2009-02-03T00:51:00Z,27.3540,-94.6250,79.0,116.0,39.1,-9999.0,'11111222,11111222,99999999' 
ADCP,ioos:station:wmo:42373:1,2009-02-03T01:11:00Z,27.3540,-94.6250,79.0,115.0,41.8,-9999.0,'11111222,11111222,99999999' 
ADCP,ioos:station:wmo:42373:1,2009-02-03T01:31:00Z,27.3540,-94.6250,79.0,115.0,40.8,-9999.0,'11111222,11111222,99999999' 
ADCP,ioos:station:wmo:42373:1,2009-02-03T01:51:00Z,27.3540,-94.6250,79.0,114.0,41.6,-9999.0,'11111222,11111222,99999999' 
ADCP,ioos:station:wmo:42373:1,2009-02-03T02:11:00Z,27.3540,-94.6250,79.0,116.0,39.7,-9999.0,'11111222,11111222,99999999' 
ADCP,ioos:station:wmo:42373:1,2009-02-03T02:31:00Z,27.3540,-94.6250,79.0,114.0,42.2,-9999.0,'11111222,11111222,99999999' 
ADCP,ioos:station:wmo:42373:1,2009-02-03T02:51:00Z,27.3540,-94.6250,79.0,115.0,40.6,-9999.0,'11111222,11111222,99999999' 
ADCP,ioos:station:wmo:42373:1,2009-02-03T03:11:00Z,27.3540,-94.6250,79.0,116.0,41.1,-9999.0,'11111222,11111222,99999999' 
ADCP,ioos:station:wmo:42373:1,2009-02-03T03:31:00Z,27.3540,-94.6250,79.0,116.0,41.8,-9999.0,'11111222,11111222,99999999' 
ADCP,ioos:station:wmo:42373:1,2009-02-03T03:51:00Z,27.3540,-94.6250,79.0,119.0,40.2,-9999.0,'11111222,11111222,99999999' 
ADCP,ioos:station:wmo:42373:1,2009-02-03T04:11:00Z,27.3540,-94.6250,79.0,117.0,41.4,-9999.0,'11111222,11111222,99999999' 
ADCP,ioos:station:wmo:42373:1,2009-02-03T04:31:00Z,27.3540,-94.6250,79.0,117.0,41.4,-9999.0,'11111222,11111222,99999999' 
ADCP,ioos:station:wmo:42373:1,2009-02-03T04:51:00Z,27.3540,-94.6250,79.0,117.0,42.8,-9999.0,'11111222,11111222,99999999' 
ADCP,ioos:station:wmo:42373:1,2009-02-03T05:11:00Z,27.3540,-94.6250,79.0,116.0,42.6,-9999.0,'11111222,11111222,99999999' 
ADCP,ioos:station:wmo:42373:1,2009-02-03T05:31:00Z,27.3540,-94.6250,79.0,115.0,43.6,-9999.0,'11111222,11111222,99999999' 
ADCP,ioos:station:wmo:42373:1,2009-02-03T05:51:00Z,27.3540,-94.6250,79.0,115.0,41.7,-9999.0,'11111222,11111222,99999999' 
ADCP,ioos:station:wmo:42373:1,2009-02-03T06:11:00Z,27.3540,-94.6250,79.0,116.0,41.6,-9999.0,'11111222,11111222,99999999' 
ADCP,ioos:station:wmo:42373:1,2009-02-03T06:31:00Z,27.3540,-94.6250,79.0,116.0,41.9,-9999.0,'11111222,11111222,99999999' 
ADCP,ioos:station:wmo:42373:1,2009-02-03T06:51:00Z,27.3540,-94.6250,79.0,117.0,41.5,-9999.0,'11111222,11111222,99999999' 
ADCP,ioos:station:wmo:42373:1,2009-02-03T07:11:00Z,27.3540,-94.6250,79.0,114.0,43.1,-9999.0,'11111222,11111222,99999999' 
ADCP,ioos:station:wmo:42373:1,2009-02-03T07:31:00Z,27.3540,-94.6250,79.0,114.0,44.1,-9999.0,'11111222,11111222,99999999' 
ADCP,ioos:station:wmo:42373:1,2009-02-03T07:51:00Z,27.3540,-94.6250,79.0,112.0,44.0,-9999.0,'11111222,11111222,99999999' 
ADCP,ioos:station:wmo:42373:1,2009-02-03T08:11:00Z,27.3540,-94.6250,79.0,111.0,45.6,-9999.0,'11111222,11111222,99999999' 
ADCP,ioos:station:wmo:42373:1,2009-02-03T08:31:00Z,27.3540,-94.6250,79.0,112.0,46.2,-9999.0,'11111222,11111222,99999999' 
ADCP,ioos:station:wmo:42373:1,2009-02-03T08:51:00Z,27.3540,-94.6250,79.0,110.0,47.1,-9999.0,'11111222,11111222,99999999' 
ADCP,ioos:station:wmo:42373:1,2009-02-03T09:11:00Z,27.3540,-94.6250,79.0,110.0,46.8,-9999.0,'11111222,11111222,99999999' 
ADCP,ioos:station:wmo:42373:1,2009-02-03T09:31:00Z,27.3540,-94.6250,79.0,110.0,46.7,-9999.0,'11111222,11111222,99999999' 
ADCP,ioos:station:wmo:42373:1,2009-02-03T09:51:00Z,27.3540,-94.6250,79.0,110.0,46.4,-9999.0,'11111222,11111222,99999999' 
ADCP,ioos:station:wmo:42373:1,2009-02-03T10:11:00Z,27.3540,-94.6250,79.0,110.0,48.0,-9999.0,'11111222,11111222,99999999' 
ADCP,ioos:station:wmo:42373:1,2009-02-03T10:31:00Z,27.3540,-94.6250,79.0,109.0,48.1,-9999.0,'11111222,11111222,99999999' 
ADCP,ioos:station:wmo:42373:1,2009-02-03T10:51:00Z,27.3540,-94.6250,79.0,108.0,48.4,-9999.0,'11111222,11111222,99999999' 
ADCP,ioos:station:wmo:42373:1,2009-02-03T11:11:00Z,27.3540,-94.6250,79.0,107.0,48.6,-9999.0,'11111222,11111222,99999999' 
ADCP,ioos:station:wmo:42373:1,2009-02-03T11:31:00Z,27.3540,-94.6250,79.0,108.0,50.2,-9999.0,'11111222,11111222,99999999' 
ADCP,ioos:station:wmo:42373:1,2009-02-03T11:51:00Z,27.3540,-94.6250,79.0,108.0,50.4,-9999.0,'11111222,11111222,99999999' 
ADCP,ioos:station:wmo:42373:1,2009-02-03T12:11:00Z,27.3540,-94.6250,79.0,108.0,49.6,-9999.0,'11111222,11111222,99999999' 
ADCP,ioos:station:wmo:42373:1,2009-02-03T12:31:00Z,27.3540,-94.6250,79.0,108.0,49.8,-9999.0,'11111222,11111222,99999999' 
ADCP,ioos:station:wmo:42373:1,2009-02-03T12:51:00Z,27.3540,-94.6250,79.0,108.0,50.5,-9999.0,'11111222,11111222,99999999' 
ADCP,ioos:station:wmo:42373:1,2009-02-03T13:11:00Z,27.3540,-94.6250,79.0,110.0,47.3,-9999.0,'11111222,11111222,99999999' 
ADCP,ioos:station:wmo:42373:1,2009-02-03T13:31:00Z,27.3540,-94.6250,79.0,109.0,52.9,-9999.0,'11111222,11111222,99999999' 
ADCP,ioos:station:wmo:42373:1,2009-02-03T13:51:00Z,27.3540,-94.6250,79.0,109.0,51.3,-9999.0,'11111222,11111222,99999999' 
ADCP,ioos:station:wmo:42373:1,2009-02-03T14:11:00Z,27.3540,-94.6250,79.0,116.0,26.1,-9999.0,'11111222,11111222,99999999' 
ADCP,ioos:station:wmo:42373:1,2009-02-03T14:31:00Z,27.3540,-94.6250,79.0,108.0,56.4,-9999.0,'11111222,11111222,99999999' 
ADCP,ioos:station:wmo:42373:1,2009-02-03T14:51:00Z,27.3540,-94.6250,79.0,108.0,57.5,-9999.0,'11111222,11111222,99999999' 
ADCP,ioos:station:wmo:42373:1,2009-02-03T15:11:00Z,27.3540,-94.6250,79.0,108.0,55.1,-9999.0,'11111222,11111222,99999999' 
ADCP,ioos:station:wmo:42373:1,2009-02-03T15:31:00Z,27.3540,-94.6250,79.0,109.0,58.2,-9999.0,'11111222,11111222,99999999' 
ADCP,ioos:station:wmo:42373:1,2009-02-03T15:51:00Z,27.3540,-94.6250,79.0,110.0,58.9,-9999.0,'11111222,11111222,99999999' 
ADCP,ioos:station:wmo:42373:1,2009-02-03T16:11:00Z,27.3540,-94.6250,79.0,110.0,61.3,-9999.0,'11111222,11111222,99999999' 
ADCP,ioos:station:wmo:42373:1,2009-02-03T16:31:00Z,27.3540,-94.6250,79.0,111.0,63.9,-9999.0,'11111222,11111222,99999999' 
ADCP,ioos:station:wmo:42373:1,2009-02-03T16:51:00Z,27.3540,-94.6250,79.0,111.0,64.8,-9999.0,'11111222,11111222,99999999' 
ADCP,ioos:station:wmo:42373:1,2009-02-03T17:11:00Z,27.3540,-94.6250,79.0,111.0,65.2,-9999.0,'11111222,11111222,99999999' 